SERVIS 2 DEB, 43393

Orbit data source: Space-Track

SERVIS 2 DEB, 43393 is space debris in SSO originally from a launch on Wed, 02 Jun 2010 UTC launched from the Plesetsk Missile And Space Complex (PKMTR). Debris objects in space refer to the collection of defunct objects orbiting the Earth. Examples of debris include non-operational satellites, rocket bodies, and fragments generated from explosions, collisions, or faulty payload assembly.

Loading next visibility...
Identifier
43393, 2010-023C
Orbit
SSO
Country
Flag of CISCIS
Related business
Manufacturer
MELCO
Mission
Spacecraft
Bus & Motor
Unknown
Mass
Unknown
Launch date (UTC)
2010-06-02 (16 years ago)
Launch vehicle
Unknown
Launch site
Plesetsk Missile And Space Complex (PKMTR)
Object type
Payload
Rocket body
Debris
Shape & HBR
Unknown shape, 0.1 m
Radar Cross Section
Small (<0.1 m²)

Expand to show TLE details & history
Last TLE update: 13 hours ago

TLE from 13 hours ago
0 SERVIS 2 DEB
1 43393U 10023C   26125.41952860  .00005255  00000-0  86429-2 0  9997
2 43393 100.6009 112.6852 0023709  61.5552 298.7963 13.47575901604736
Epoch: 2026-05-05T10:04Z
TLE epoch observation values (Epoch: 2026-05-05T10:04:07.271Z)
Latitude
0.00002°
Longitude
98.36026°
Altitude
1,075.452 km
Speed
7.319 km/s
True Right ascension
07h 30m 44s
True Declination
0° 00' 00"
Sunlit
Object was in daylight at epoch
Visualization orbit readout
Latitude
Unknown
Longitude
Unknown
Altitude
Unknown
Speed
Unknown
Apparent Right ascension
Unknown
Apparent Declination
Unknown
Sunlit
N/A
Visualization observer readout
Local Sidereal Time
07:13:50
Azimuth
Unknown
Elevation
Unknown
Doppler factor
Unknown
Orbital elements
Apogee altitude
1,096.223 km
Perigee altitude
1,060.864 km
Semi-major axis
7,456.681 km
Eccentricity
0.00237
Inclination
100.6009°
RAAN
112.6852°
Arg. of periapsis
61.5552°
True anomaly
298.55787°
Mean anomaly
298.7963°
Eccentric anomaly
298.67712°
Mean motion
3.37074 °/min
Orbital period
106.8 mins
BSTAR
0.0086429
Loading maneuver chart data...
Computing Atmospheric mass density...
Loading historical data...
Loading historical data...
Loading historical data...
Loading historical data...
Loading historical data...
Loading historical data...
Loading historical data...
Other satellites on launch #23 in the year 2010 (2010-06-02 UTC)

Documentation

Showing up to 5 results
|